Location: Bu�n Treun
(12.1333°N, 108.3167°E)
Time: 13:18:19
(UTC+00:00)

Ariane H10-3 - Pass Details

Date: 13 July 2020
Orbit: 273 x 30328 km, 4.3° (Epoch: 06 August)

Event Time Altitude Azimuth Distance (km) Brightness Sun altitude
Exits shadow 20:22:08 28° 151° (SSE) 1,612 4.1 -28.5°
Drops below altitude 10° 20:31:38 10° 100° (E) 5,597 7.5 -26.5°
Sets 20:44:02 0° 92° (E) 10,428 9.2 -24.0°
